MTN8311 KBWI-KEWR

Flight info

Callsign MTN8311
Flight time 0h 59m
Altitude 5000
Route BAL V378 MXE V3 SBJ
Aircraft C208/L-SDFGR/C

Departure

Time 2026-05-05 12:59
Airport Baltimore/Washington International Thurgood Marshall Airport (KBWI)

Arrival

Time 2026-05-05 13:58
Airport Newark Liberty International Airport (KEWR)
Time Latitude Longitude Altitude Speed Heading
2026-05-05 12:29 39.18582 -76.66886 162 ft 0 kts 54°
2026-05-05 12:51 39.18584 -76.66881 165 ft 2 kts 101°
2026-05-05 12:51 39.18560 -76.66915 165 ft 10 kts 239°
2026-05-05 12:52 39.18489 -76.66932 164 ft 14 kts 160°
2026-05-05 12:52 39.18402 -76.66828 155 ft 17 kts 88°
2026-05-05 12:52 39.18450 -76.66720 156 ft 11 kts 57°
2026-05-05 12:52 39.18489 -76.66649 155 ft 8 kts 55°
2026-05-05 12:53 39.18517 -76.66595 156 ft 8 kts 56°
2026-05-05 12:53 39.18570 -76.66495 157 ft 18 kts 60°
2026-05-05 12:53 39.18492 -76.66359 154 ft 24 kts 141°
2026-05-05 12:53 39.18337 -76.66203 151 ft 33 kts 141°
2026-05-05 12:54 39.18001 -76.65877 142 ft 26 kts 142°
2026-05-05 12:54 39.17888 -76.65756 134 ft 20 kts 146°
2026-05-05 12:54 39.17773 -76.65647 126 ft 16 kts 141°
2026-05-05 12:55 39.17687 -76.65556 126 ft 17 kts 147°
2026-05-05 12:55 39.17601 -76.65472 125 ft 11 kts 144°
2026-05-05 12:55 39.17581 -76.65414 124 ft 6 kts 70°
2026-05-05 12:55 39.17585 -76.65407 124 ft 0 kts 51°
2026-05-05 12:57 39.17595 -76.65391 119 ft 8 kts 51°
2026-05-05 12:57 39.17660 -76.65355 119 ft 7 kts 321°
2026-05-05 12:57 39.17662 -76.65358 119 ft 0 kts 324°
2026-05-05 12:58 39.17682 -76.65376 118 ft 18 kts 324°
2026-05-05 12:58 39.17940 -76.65616 120 ft 71 kts 324°
2026-05-05 12:58 39.18391 -76.66064 277 ft 86 kts 312°
2026-05-05 12:58 39.18947 -76.66484 466 ft 96 kts 324°
2026-05-05 12:59 39.19528 -76.66938 678 ft 98 kts 325°
2026-05-05 12:59 39.20211 -76.67148 872 ft 110 kts
2026-05-05 12:59 39.20838 -76.66503 1070 ft 126 kts 48°
2026-05-05 13:00 39.22013 -76.64646 1544 ft 139 kts 47°
2026-05-05 13:00 39.22603 -76.63633 1773 ft 144 kts 48°
2026-05-05 13:01 39.24213 -76.60197 2464 ft 155 kts 52°
2026-05-05 13:01 39.25013 -76.59321 2707 ft 150 kts 25°
2026-05-05 13:01 39.25898 -76.58590 2941 ft 152 kts 27°
2026-05-05 13:01 39.26780 -76.57827 3166 ft 154 kts 27°
2026-05-05 13:02 39.27674 -76.57058 3389 ft 155 kts 27°
2026-05-05 13:02 39.28579 -76.56277 3636 ft 157 kts 27°
2026-05-05 13:02 39.29488 -76.55491 3863 ft 157 kts 26°
2026-05-05 13:02 39.30397 -76.54707 4088 ft 157 kts 26°
2026-05-05 13:03 39.31305 -76.53923 4314 ft 157 kts 26°
2026-05-05 13:03 39.32203 -76.53151 4536 ft 157 kts 25°
2026-05-05 13:03 39.33111 -76.52365 4762 ft 157 kts 26°
2026-05-05 13:03 39.34008 -76.51585 4975 ft 153 kts 25°
2026-05-05 13:04 39.34924 -76.50799 5030 ft 164 kts 26°
2026-05-05 13:04 39.35905 -76.49958 5036 ft 173 kts 27°
2026-05-05 13:04 39.36910 -76.49078 5044 ft 175 kts 28°
2026-05-05 13:04 39.37919 -76.48196 4999 ft 174 kts 27°
2026-05-05 13:05 39.38940 -76.47372 5006 ft 171 kts 17°
2026-05-05 13:05 39.39996 -76.46668 4997 ft 177 kts 35°
2026-05-05 13:05 39.40910 -76.45598 4996 ft 177 kts 34°
2026-05-05 13:05 39.41898 -76.44673 5001 ft 175 kts 27°
2026-05-05 13:06 39.42927 -76.43832 5000 ft 175 kts 26°
2026-05-05 13:06 39.43944 -76.42973 5001 ft 175 kts 27°
2026-05-05 13:06 39.44950 -76.42102 5004 ft 174 kts 28°
2026-05-05 13:06 39.45953 -76.41224 5008 ft 174 kts 26°
2026-05-05 13:07 39.46963 -76.40357 5003 ft 174 kts 25°
2026-05-05 13:07 39.47975 -76.39492 5006 ft 176 kts 26°
2026-05-05 13:07 39.48985 -76.38598 5005 ft 176 kts 27°
2026-05-05 13:07 39.49997 -76.37711 5003 ft 176 kts 26°
2026-05-05 13:08 39.51019 -76.36830 5002 ft 177 kts 26°
2026-05-05 13:08 39.52045 -76.35934 5011 ft 179 kts 27°
2026-05-05 13:08 39.53089 -76.35026 5007 ft 182 kts 27°
2026-05-05 13:08 39.54137 -76.34083 5009 ft 184 kts 28°
2026-05-05 13:09 39.55186 -76.33147 5009 ft 182 kts 27°
2026-05-05 13:09 39.56241 -76.32244 5012 ft 182 kts 27°
2026-05-05 13:09 39.57297 -76.31328 5008 ft 182 kts 27°
2026-05-05 13:09 39.58353 -76.30422 5010 ft 182 kts 26°
2026-05-05 13:10 39.59231 -76.29233 4996 ft 190 kts 52°
2026-05-05 13:10 39.59960 -76.27787 5004 ft 189 kts 51°
2026-05-05 13:10 39.60456 -76.26859 5001 ft 189 kts 51°
2026-05-05 13:10 39.61455 -76.24995 5002 ft 191 kts 51°
2026-05-05 13:11 39.61956 -76.24039 4999 ft 189 kts 51°
2026-05-05 13:11 39.62951 -76.22158 5004 ft 189 kts 51°
2026-05-05 13:11 39.63447 -76.21225 5005 ft 190 kts 51°
2026-05-05 13:11 39.64201 -76.19813 5001 ft 190 kts 51°
2026-05-05 13:12 39.64962 -76.18414 5007 ft 191 kts 49°
2026-05-05 13:12 39.65737 -76.17020 5000 ft 190 kts 49°
2026-05-05 13:12 39.66516 -76.15635 5000 ft 190 kts 49°
2026-05-05 13:12 39.67297 -76.14258 4986 ft 189 kts 49°
2026-05-05 13:13 39.68056 -76.12923 4987 ft 188 kts 49°
2026-05-05 13:13 39.68854 -76.11526 4990 ft 188 kts 49°
2026-05-05 13:13 39.69635 -76.10164 4990 ft 188 kts 48°
2026-05-05 13:13 39.70423 -76.08804 4990 ft 188 kts 47°
2026-05-05 13:14 39.71212 -76.07451 4989 ft 188 kts 47°
2026-05-05 13:14 39.72007 -76.06098 4987 ft 188 kts 47°
2026-05-05 13:14 39.72803 -76.04751 4987 ft 188 kts 47°
2026-05-05 13:14 39.73600 -76.03409 4987 ft 187 kts 47°
2026-05-05 13:15 39.74398 -76.02071 4982 ft 187 kts 46°
2026-05-05 13:15 39.75196 -76.00742 4980 ft 186 kts 47°
2026-05-05 13:15 39.75995 -75.99423 4979 ft 186 kts 47°
2026-05-05 13:15 39.76799 -75.98104 4976 ft 186 kts 46°
2026-05-05 13:16 39.77605 -75.96793 4979 ft 185 kts 46°
2026-05-05 13:16 39.78410 -75.95493 4978 ft 185 kts 46°
2026-05-05 13:16 39.79223 -75.94193 4978 ft 185 kts 45°
2026-05-05 13:16 39.80040 -75.92897 4991 ft 186 kts 45°
2026-05-05 13:17 39.80862 -75.91602 4992 ft 186 kts 45°
2026-05-05 13:17 39.81687 -75.90315 4994 ft 185 kts 45°
2026-05-05 13:17 39.82513 -75.89032 4996 ft 185 kts 44°
2026-05-05 13:17 39.83344 -75.87751 4997 ft 186 kts 45°
2026-05-05 13:18 39.83951 -75.86281 4995 ft 190 kts 72°
2026-05-05 13:18 39.84295 -75.84615 4997 ft 191 kts 73°
2026-05-05 13:18 39.84639 -75.82945 4998 ft 191 kts 75°
2026-05-05 13:18 39.84839 -75.81221 5001 ft 194 kts 81°
2026-05-05 13:19 39.85247 -75.79565 4994 ft 192 kts 57°
2026-05-05 13:19 39.86009 -75.78127 5000 ft 190 kts 50°
2026-05-05 13:19 39.86774 -75.76753 4999 ft 190 kts 52°
2026-05-05 13:19 39.87521 -75.75331 4998 ft 190 kts 52°
2026-05-05 13:20 39.88260 -75.73905 5001 ft 190 kts 52°
2026-05-05 13:20 39.89001 -75.72483 5003 ft 190 kts 53°
2026-05-05 13:20 39.89742 -75.71057 5005 ft 190 kts 52°
2026-05-05 13:20 39.90481 -75.69636 5011 ft 189 kts 53°
2026-05-05 13:21 39.91219 -75.68217 5014 ft 190 kts 53°
2026-05-05 13:21 39.91981 -75.66818 5013 ft 188 kts 45°
2026-05-05 13:21 39.92883 -75.65590 5011 ft 188 kts 41°
2026-05-05 13:21 39.93786 -75.64367 5014 ft 187 kts 43°
2026-05-05 13:22 39.94680 -75.63134 5015 ft 188 kts 43°
2026-05-05 13:22 39.95579 -75.61892 5017 ft 189 kts 43°
2026-05-05 13:22 39.96480 -75.60648 5019 ft 188 kts 43°
2026-05-05 13:22 39.97380 -75.59407 5016 ft 189 kts 42°
2026-05-05 13:23 39.98284 -75.58161 5016 ft 189 kts 42°
2026-05-05 13:23 39.99190 -75.56911 5019 ft 190 kts 43°
2026-05-05 13:23 40.00096 -75.55658 5021 ft 190 kts 42°
2026-05-05 13:23 40.01008 -75.54400 5019 ft 191 kts 41°
2026-05-05 13:24 40.01922 -75.53137 5018 ft 191 kts 41°
2026-05-05 13:24 40.02837 -75.51875 5019 ft 192 kts 41°
2026-05-05 13:24 40.03752 -75.50608 5021 ft 191 kts 41°
2026-05-05 13:24 40.04666 -75.49342 5023 ft 192 kts 41°
2026-05-05 13:25 40.05583 -75.48072 5019 ft 193 kts 41°
2026-05-05 13:25 40.06505 -75.46796 5020 ft 193 kts 41°
2026-05-05 13:25 40.07425 -75.45523 5018 ft 193 kts 41°
2026-05-05 13:25 40.08347 -75.44247 5002 ft 193 kts 41°
2026-05-05 13:26 40.09270 -75.42967 4998 ft 193 kts 41°
2026-05-05 13:26 40.10197 -75.41713 4996 ft 191 kts 42°
2026-05-05 13:26 40.11102 -75.40437 4995 ft 192 kts 44°
2026-05-05 13:26 40.12007 -75.39155 5006 ft 192 kts 43°
2026-05-05 13:27 40.12909 -75.37908 5003 ft 191 kts 43°
2026-05-05 13:27 40.13822 -75.36642 5003 ft 192 kts 43°
2026-05-05 13:27 40.14734 -75.35375 5001 ft 191 kts 43°
2026-05-05 13:27 40.15645 -75.34115 5003 ft 191 kts 43°
2026-05-05 13:28 40.16554 -75.32847 5004 ft 191 kts 43°
2026-05-05 13:28 40.17465 -75.31577 5008 ft 191 kts 43°
2026-05-05 13:28 40.18375 -75.30313 5008 ft 190 kts 43°
2026-05-05 13:28 40.19283 -75.29043 5012 ft 192 kts 43°
2026-05-05 13:29 40.20194 -75.27778 5011 ft 191 kts 42°
2026-05-05 13:29 40.21101 -75.26505 5011 ft 192 kts 43°
2026-05-05 13:29 40.22015 -75.25236 5016 ft 191 kts 43°
2026-05-05 13:29 40.22929 -75.23962 5012 ft 192 kts 43°
2026-05-05 13:30 40.23845 -75.22689 5008 ft 192 kts 43°
2026-05-05 13:30 40.24758 -75.21411 4991 ft 192 kts 42°
2026-05-05 13:30 40.25669 -75.20140 4986 ft 191 kts 43°
2026-05-05 13:30 40.26569 -75.18878 4987 ft 189 kts 43°
2026-05-05 13:31 40.27464 -75.17625 4987 ft 188 kts 43°
2026-05-05 13:31 40.28357 -75.16381 4984 ft 187 kts 42°
2026-05-05 13:31 40.29247 -75.15145 4986 ft 187 kts 43°
2026-05-05 13:31 40.30135 -75.13896 4986 ft 188 kts 43°
2026-05-05 13:32 40.31026 -75.12644 4986 ft 188 kts 43°
2026-05-05 13:32 40.31920 -75.11389 4984 ft 188 kts 43°
2026-05-05 13:32 40.32812 -75.10142 4985 ft 188 kts 43°
2026-05-05 13:32 40.33707 -75.08890 4989 ft 189 kts 43°
2026-05-05 13:33 40.34604 -75.07631 4983 ft 188 kts 43°
2026-05-05 13:33 40.35493 -75.06379 4989 ft 188 kts 44°
2026-05-05 13:33 40.36383 -75.05117 4979 ft 188 kts 44°
2026-05-05 13:33 40.37279 -75.03865 4989 ft 189 kts 43°
2026-05-05 13:34 40.38166 -75.02622 4987 ft 189 kts 44°
2026-05-05 13:34 40.39065 -75.01361 4993 ft 190 kts 44°
2026-05-05 13:34 40.39976 -75.00081 4990 ft 192 kts 43°
2026-05-05 13:34 40.40884 -74.98805 4983 ft 190 kts 44°
2026-05-05 13:35 40.41785 -74.97525 4982 ft 192 kts 44°
2026-05-05 13:35 40.42694 -74.96245 4983 ft 191 kts 44°
2026-05-05 13:35 40.43602 -74.94970 4984 ft 192 kts 43°
2026-05-05 13:35 40.44514 -74.93687 4987 ft 193 kts 44°
2026-05-05 13:36 40.45428 -74.92391 4986 ft 193 kts 44°
2026-05-05 13:36 40.46339 -74.91106 4985 ft 192 kts 43°
2026-05-05 13:36 40.47248 -74.89827 4983 ft 190 kts 44°
2026-05-05 13:36 40.48149 -74.88555 4987 ft 190 kts 44°
2026-05-05 13:37 40.49050 -74.87282 4966 ft 190 kts 43°
2026-05-05 13:37 40.49950 -74.86013 4967 ft 189 kts 43°
2026-05-05 13:37 40.50847 -74.84743 4967 ft 190 kts 44°
2026-05-05 13:37 40.51745 -74.83469 4967 ft 190 kts 44°
2026-05-05 13:38 40.52649 -74.82198 4969 ft 191 kts 44°
2026-05-05 13:38 40.53555 -74.80920 4964 ft 191 kts 44°
2026-05-05 13:38 40.54456 -74.79640 4966 ft 190 kts 44°
2026-05-05 13:38 40.55355 -74.78369 4971 ft 190 kts 43°
2026-05-05 13:39 40.56260 -74.77083 4966 ft 192 kts 43°
2026-05-05 13:39 40.57165 -74.75799 4964 ft 191 kts 44°
2026-05-05 13:39 40.58069 -74.74522 4962 ft 191 kts 43°
2026-05-05 13:39 40.58934 -74.73186 4960 ft 194 kts 55°
2026-05-05 13:40 40.59561 -74.71607 4957 ft 195 kts 63°
2026-05-05 13:40 40.60166 -74.70012 4963 ft 195 kts 62°
2026-05-05 13:40 40.60774 -74.68415 4981 ft 195 kts 63°
2026-05-05 13:40 40.61375 -74.66824 4987 ft 195 kts 63°
2026-05-05 13:41 40.61973 -74.65223 4986 ft 195 kts 63°
2026-05-05 13:41 40.62577 -74.63614 4880 ft 195 kts 63°
2026-05-05 13:41 40.63168 -74.62032 4746 ft 190 kts 62°
2026-05-05 13:41 40.63742 -74.60477 4613 ft 188 kts 62°
2026-05-05 13:42 40.64305 -74.58936 4480 ft 185 kts 62°
2026-05-05 13:42 40.64859 -74.57413 4358 ft 185 kts 62°
2026-05-05 13:42 40.65413 -74.55888 4224 ft 184 kts 63°
2026-05-05 13:42 40.65965 -74.54366 4107 ft 185 kts 62°
2026-05-05 13:43 40.66518 -74.52832 3982 ft 185 kts 63°
2026-05-05 13:43 40.67053 -74.51317 3857 ft 184 kts 63°
2026-05-05 13:43 40.67592 -74.49798 3735 ft 183 kts 62°
2026-05-05 13:43 40.68146 -74.48256 3611 ft 184 kts 63°
2026-05-05 13:44 40.68681 -74.46752 3496 ft 184 kts 62°
2026-05-05 13:44 40.69211 -74.45223 3384 ft 183 kts 62°
2026-05-05 13:44 40.69739 -74.43694 3262 ft 183 kts 63°
2026-05-05 13:44 40.70274 -74.42181 3139 ft 182 kts 63°
2026-05-05 13:45 40.70804 -74.40667 3020 ft 181 kts 62°
2026-05-05 13:45 40.71322 -74.39175 3014 ft 178 kts 62°
2026-05-05 13:45 40.71831 -74.37692 3006 ft 177 kts 63°
2026-05-05 13:45 40.72344 -74.36203 3010 ft 183 kts 62°
2026-05-05 13:46 40.72883 -74.34668 3009 ft 185 kts 63°
2026-05-05 13:46 40.73426 -74.33139 3007 ft 184 kts 62°
2026-05-05 13:46 40.73971 -74.31602 3013 ft 186 kts 63°
2026-05-05 13:46 40.74523 -74.30058 3010 ft 186 kts 63°
2026-05-05 13:47 40.75069 -74.28511 3010 ft 186 kts 62°
2026-05-05 13:47 40.75630 -74.26975 3005 ft 186 kts 64°
2026-05-05 13:47 40.76189 -74.25447 3005 ft 185 kts 61°
2026-05-05 13:47 40.76752 -74.23913 3005 ft 188 kts 62°
2026-05-05 13:48 40.77314 -74.22354 3005 ft 188 kts 63°
2026-05-05 13:48 40.77870 -74.20796 3003 ft 188 kts 62°
2026-05-05 13:48 40.78438 -74.19242 3004 ft 187 kts 57°
2026-05-05 13:48 40.79333 -74.18066 2994 ft 179 kts 27°
2026-05-05 13:49 40.80358 -74.17138 2997 ft 179 kts 27°
2026-05-05 13:49 40.81374 -74.16193 2999 ft 179 kts 28°
2026-05-05 13:49 40.82396 -74.15249 2999 ft 179 kts 27°
2026-05-05 13:49 40.83423 -74.14321 2998 ft 178 kts 27°
2026-05-05 13:50 40.84437 -74.13386 3000 ft 178 kts 27°
2026-05-05 13:50 40.85454 -74.12466 2999 ft 177 kts 27°
2026-05-05 13:50 40.86453 -74.11506 2998 ft 181 kts 38°
2026-05-05 13:50 40.87009 -74.10009 2992 ft 187 kts 85°
2026-05-05 13:51 40.86752 -74.08367 2997 ft 180 kts 117°
2026-05-05 13:51 40.86229 -74.06968 2988 ft 159 kts 139°
2026-05-05 13:51 40.85364 -74.06265 2996 ft 142 kts 168°
2026-05-05 13:51 40.84464 -74.05752 2984 ft 140 kts 167°
2026-05-05 13:52 40.83601 -74.05666 2958 ft 118 kts 210°
2026-05-05 13:52 40.82842 -74.06097 2817 ft 119 kts 213°
2026-05-05 13:52 40.82087 -74.06550 2670 ft 116 kts 223°
2026-05-05 13:52 40.81470 -74.07211 2531 ft 114 kts 228°
2026-05-05 13:53 40.80869 -74.07878 2381 ft 113 kts 228°
2026-05-05 13:53 40.80258 -74.08518 2236 ft 110 kts 227°
2026-05-05 13:53 40.79679 -74.09150 2112 ft 108 kts 227°
2026-05-05 13:53 40.79104 -74.09789 2006 ft 107 kts 227°
2026-05-05 13:54 40.78544 -74.10399 1993 ft 101 kts 226°
2026-05-05 13:54 40.77992 -74.10926 1896 ft 105 kts 216°
2026-05-05 13:54 40.77381 -74.11364 1907 ft 87 kts 230°
2026-05-05 13:54 40.76795 -74.11713 1799 ft 98 kts 213°
2026-05-05 13:55 40.76131 -74.11992 1704 ft 99 kts 207°
2026-05-05 13:55 40.75482 -74.12285 1559 ft 97 kts 217°
2026-05-05 13:55 40.74927 -74.12727 1451 ft 94 kts 219°
2026-05-05 13:55 40.74342 -74.13165 1277 ft 99 kts 212°
2026-05-05 13:56 40.73736 -74.13595 1090 ft 99 kts 212°
2026-05-05 13:56 40.73151 -74.13965 983 ft 90 kts 213°
2026-05-05 13:56 40.72581 -74.14286 828 ft 85 kts 206°
2026-05-05 13:56 40.72022 -74.14563 613 ft 87 kts 206°
2026-05-05 13:57 40.71558 -74.14982 504 ft 73 kts 212°
2026-05-05 13:57 40.71121 -74.15265 330 ft 69 kts 214°
2026-05-05 13:57 40.70743 -74.15520 251 ft 56 kts 205°
2026-05-05 13:57 40.70403 -74.15739 160 ft 52 kts 207°
2026-05-05 13:58 40.70185 -74.15865 140 ft 55 kts 207°
2026-05-05 13:58 40.69687 -74.16184 72 ft 60 kts 207°
2026-05-05 13:58 40.69336 -74.16414 30 ft 52 kts 212°
2026-05-05 13:58 40.69076 -74.16584 22 ft 30 kts 205°
2026-05-05 13:59 40.68763 -74.16842 20 ft 26 kts 229°
2026-05-05 13:59 40.68693 -74.16965 21 ft 25 kts 237°
2026-05-05 14:00 40.68369 -74.17259 21 ft 25 kts 202°
2026-05-05 14:00 40.68261 -74.17324 21 ft 26 kts 207°
2026-05-05 14:00 40.68099 -74.17432 19 ft 26 kts 196°
2026-05-05 14:00 40.67936 -74.17532 20 ft 26 kts 205°
2026-05-05 14:01 40.67776 -74.17635 20 ft 25 kts 207°
2026-05-05 14:01 40.67617 -74.17735 22 ft 25 kts 206°
2026-05-05 14:01 40.67521 -74.17854 21 ft 14 kts 290°
2026-05-05 14:01 40.67568 -74.17991 22 ft 19 kts 300°
2026-05-05 14:02 40.67640 -74.18127 21 ft 13 kts 268°
2026-05-05 14:02 40.67573 -74.18203 21 ft 17 kts 207°
2026-05-05 14:02 40.67462 -74.18274 21 ft 9 kts 206°
2026-05-05 14:02 40.67436 -74.18294 21 ft 4 kts 238°
2026-05-05 14:03 40.67445 -74.18306 22 ft 2 kts 340°
2026-05-05 14:03 40.67450 -74.18309 22 ft 0 kts 340°